GW1987 Weather Reports


Display with metric or nautical units.
time (UTC)temp
F
wind
direction
speed
MPH
gust
MPH
rain 1hr
in
rain 24hr
in
rain mn
in
humidity
%
barometer
mb
20260904162018 58 360 16.0 21.0 0.00 0.00 0.00 40 921.5
20260904161600 58 360 17.0 21.0 0.00 0.00 0.00 40 921.3
20260904161021 58 360 17.0 20.0 0.00 0.00 0.00 40 921.3
20260904160522 58 360 16.0 21.0 0.00 0.00 0.00 41 921.3
20260904160100 57 360 17.0 22.0 0.00 0.00 0.00 42 921.1
20260904155520 57 360 17.0 22.0 0.00 0.00 0.00 42 921.1
20260904155020 57 360 17.0 22.0 0.00 0.00 0.00 42 920.9
20260904154611 57 360 17.0 22.0 0.00 0.00 0.00 43 920.7
20260904154019 57 360 17.0 21.0 0.00 0.00 0.00 45 920.8
20260904153520 56 360 17.0 21.0 0.00 0.00 0.00 46 920.7
20260904153059 55 360 13.0 19.0 0.00 0.00 0.00 47 920.9
20260904152516 55 360 14.0 19.0 0.00 0.00 0.00 48 921.0
20260904152022 55 360 13.0 17.0 0.00 0.00 0.00 49 920.9
20260904151602 54 360 13.0 18.0 0.00 0.00 0.00 49 920.7
20260904151018 54 360 13.0 19.0 0.00 0.00 0.00 50 920.6
20260904150521 53 360 13.0 18.0 0.00 0.00 0.00 51 920.5
20260904150059 53 360 12.0 16.0 0.00 0.00 0.00 52 920.4
20260904145520 52 360 11.0 16.0 0.00 0.00 0.00 53 920.6
20260904145020 52 360 10.0 15.0 0.00 0.00 0.00 53 920.6
20260904144558 51 360 12.0 15.0 0.00 0.00 0.00 54 920.4
20260904144017 51 360 11.0 14.0 0.00 0.00 0.00 55 920.2
20260904143517 51 360 10.0 13.0 0.00 0.00 0.00 56 920.2
20260904143107 50 360 9.0 13.0 0.00 0.00 0.00 57 920.2
20260904142517 49 360 8.0 11.0 0.00 0.00 0.00 58 920.1
20260904142020 49 360 7.0 10.0 0.00 0.00 0.00 59 920.1
20260904141603 48 360 6.0 10.0 0.00 0.00 0.00 59 920.0
20260904141021 48 360 7.0 10.0 0.00 0.00 0.00 60 919.8
20260904140522 47 360 7.0 10.0 0.00 0.00 0.00 61 919.8
20260904140109 47 360 6.0 10.0 0.00 0.00 0.00 61 919.7
20260904135520 46 360 6.0 10.0 0.00 0.00 0.00 61 920.0
20260904135021 46 360 7.0 11.0 0.00 0.00 0.00 62 920.0
20260904134614 46 360 7.0 11.0 0.00 0.00 0.00 62 919.7
20260904134017 46 360 6.0 10.0 0.00 0.00 0.00 62 919.7
20260904133516 45 360 5.0 9.0 0.00 0.00 0.00 63 919.7
20260904133057 45 360 4.0 10.0 0.00 0.00 0.00 63 919.5
20260904132521 45 360 6.0 13.0 0.00 0.00 0.00 63 919.5
20260904132021 45 360 9.0 13.0 0.00 0.00 0.00 63 919.5
20260904131603 44 360 8.0 12.0 0.00 0.00 0.00 64 919.4
20260904131020 45 360 7.0 11.0 0.00 0.00 0.00 64 919.6
20260904130520 45 360 7.0 12.0 0.00 0.00 0.00 63 919.6
20260904130059 45 360 8.0 13.0 0.00 0.00 0.00 63 919.5
20260904125522 45 360 10.0 13.0 0.00 0.00 0.00 63 919.5
20260904125019 45 360 9.0 13.0 0.00 0.00 0.00 64 919.6
20260904124608 45 360 8.0 11.0 0.00 0.00 0.00 64 919.6
20260904124017 45 360 6.0 11.0 0.00 0.00 0.00 64 919.6
20260904123517 45 360 8.0 13.0 0.00 0.00 0.00 64 919.4
20260904123111 45 360 10.0 13.0 0.00 0.00 0.00 65 919.5
20260904122521 45 360 7.0 11.0 0.00 0.00 0.00 65 919.5
20260904122021 45 360 7.0 10.0 0.00 0.00 0.00 65 919.6
20260904121559 45 360 8.0 10.0 0.00 0.00 0.00 65 919.5
20260904121021 45 360 6.0 10.0 0.00 0.00 0.00 65 919.3
20260904120518 45 360 6.0 10.0 0.00 0.00 0.00 65 919.5
20260904120109 45 360 7.0 9.0 0.00 0.00 0.00 64 919.5
20260904115525 46 360 5.0 8.0 0.00 0.00 0.00 64 919.4
20260904115021 46 360 4.0 8.0 0.00 0.00 0.00 64 919.3
20260904114605 46 360 4.0 8.0 0.00 0.00 0.00 64 919.4
20260904114024 46 360 5.0 8.0 0.00 0.00 0.00 65 919.4
20260904113521 46 360 4.0 6.0 0.00 0.00 0.00 65 919.5
20260904113100 46 360 4.0 6.0 0.00 0.00 0.00 65 919.4
20260904112522 46 360 4.0 6.0 0.00 0.00 0.00 65 919.5
20260904112020 45 360 5.0 6.0 0.00 0.00 0.00 66 919.5
20260904111609 45 360 4.0 9.0 0.00 0.00 0.00 66 919.5
20260904111017 45 360 7.0 9.0 0.00 0.00 0.00 66 919.5
20260904110519 45 360 5.0 8.0 0.00 0.00 0.00 66 919.5
20260904110108 45 360 4.0 8.0 0.00 0.00 0.00 66 919.5
20260904105527 45 360 5.0 8.0 0.00 0.00 0.00 66 919.6
20260904105021 45 360 4.0 9.0 0.00 0.00 0.00 66 919.5
20260904104550 45 360 6.0 9.0 0.00 0.00 0.00 66 919.6
20260904104019 45 360 6.0 9.0 0.00 0.00 0.00 66 919.6
20260904103522 45 360 5.0 9.0 0.00 0.00 0.00 66 919.7
20260904103104 45 360 6.0 9.0 0.00 0.00 0.00 66 919.8
20260904102521 45 360 6.0 9.0 0.00 0.00 0.00 66 920.0
20260904102018 46 360 5.0 6.0 0.00 0.00 0.00 65 920.0
20260904101602 46 360 3.0 6.0 0.00 0.00 0.00 65 919.9
20260904101024 46 360 4.0 6.0 0.00 0.00 0.00 65 919.7
20260904100520 46 360 3.0 5.0 0.00 0.00 0.00 64 919.8
20260904100109 47 360 3.0 5.0 0.00 0.00 0.00 64 919.9
20260904095521 47 360 3.0 4.0 0.00 0.00 0.00 64 920.0
20260904095018 47 360 3.0 4.0 0.00 0.00 0.00 64 920.2
20260904094612 47 360 2.0 3.0 0.00 0.00 0.00 65 920.2
20260904093716 47 360 2.0 4.0 0.00 0.00 0.00 64 920.3
20260904093035 47 360 1.0 5.0 0.00 0.00 0.00 65 920.3
20260904092521 46 360 1.0 3.0 0.00 0.00 0.00 64 920.4
20260904092018 46 360 0.0 5.0 0.00 0.00 0.00 64 920.4
20260904091538 46 360 4.0 5.0 0.00 0.00 0.00 65 920.5
20260904091018 46 360 1.0 4.0 0.00 0.00 0.00 64 920.5
20260904090517 46 360 2.0 4.0 0.00 0.00 0.00 64 920.5
20260904090045 46 360 0.0 3.0 0.00 0.00 0.00 64 920.6
20260904085519 46 360 0.0 4.0 0.00 0.00 0.00 64 920.5
20260904085020 46 360 2.0 5.0 0.00 0.00 0.00 63 920.5
20260904084536 47 360 1.0 6.0 0.00 0.00 0.00 63 920.5
20260904084019 47 360 4.0 8.0 0.00 0.00 0.00 64 920.3
20260904083517 47 360 5.0 8.0 0.00 0.00 0.00 63 920.4
20260904083105 47 360 4.0 8.0 0.00 0.00 0.00 63 920.5
20260904082518 47 360 5.0 8.0 0.00 0.00 0.00 63 920.4
20260904082018 47 360 5.0 8.0 0.00 0.00 0.00 63 920.5
20260904081535 47 360 6.0 9.0 0.00 0.00 0.00 62 920.5
20260904081019 47 360 6.0 8.0 0.00 0.00 0.00 61 920.5
20260904080518 48 360 4.0 6.0 0.00 0.00 0.00 60 920.3
20260904080041 48 360 5.0 6.0 0.00 0.00 0.00 60 920.5
20260904075518 49 360 4.0 5.0 0.00 0.00 0.00 60 920.3
20260904075017 49 360 4.0 5.0 0.00 0.00 0.00 59 920.3
20260904074537 49 360 3.0 4.0 0.00 0.00 0.00 58 920.3
20260904074017 50 360 3.0 4.0 0.00 0.00 0.00 59 920.5
20260904073518 49 360 3.0 5.0 0.00 0.00 0.00 59 920.6
20260904073037 49 360 3.0 5.0 0.00 0.00 0.00 59 920.6
20260904072518 49 360 2.0 4.0 0.00 0.00 0.00 59 920.7
20260904072023 50 360 1.0 4.0 0.00 0.00 0.00 58 920.7
20260904071545 50 360 0.0 0.0 0.00 0.00 0.00 61 920.8
20260904071017 49 360 0.0 0.0 0.00 0.00 0.00 62 920.8
20260904070519 48 360 0.0 0.0 0.00 0.00 0.00 63 920.8
20260904070106 48 360 0.0 0.0 0.00 0.00 0.00 62 920.9
20260904065518 49 360 0.0 0.0 0.00 0.00 0.00 62 920.9
20260904065019 49 360 0.0 1.0 0.00 0.00 0.00 61 921.1
20260904064539 49 360 0.0 1.0 0.00 0.00 0.00 61 921.1
20260904064017 50 360 0.0 2.0 0.00 0.00 0.00 61 920.9
20260904063520 50 360 0.0 2.0 0.00 0.00 0.00 60 920.8
20260904063036 50 360 1.0 2.0 0.00 0.00 0.00 60 920.9
20260904062516 50 360 1.0 2.0 0.00 0.00 0.00 61 921.0
20260904062016 49 360 1.0 3.0 0.00 0.00 0.00 62 921.1
20260904061536 49 360 1.0 4.0 0.00 0.00 0.00 62 921.3
20260904061017 48 360 2.0 5.0 0.00 0.00 0.00 62 921.1
20260904060521 49 360 2.0 4.0 0.00 0.00 0.00 60 921.2
20260904060041 49 360 1.0 3.0 0.00 0.00 0.00 58 921.0
20260904055516 50 360 0.0 2.0 0.00 0.01 0.00 57 921.1
20260904055018 51 360 0.0 4.0 0.00 0.01 0.00 55 920.9
20260904054548 52 360 2.0 4.0 0.00 0.01 0.00 55 920.8
20260904054019 52 360 3.0 4.0 0.00 0.01 0.00 55 920.8
20260904053516 52 360 3.0 4.0 0.00 0.01 0.00 54 920.6
20260904053056 53 360 0.0 5.0 0.00 0.01 0.00 54 920.9
20260904052518 53 360 3.0 5.0 0.00 0.01 0.00 54 920.9
20260904052017 53 360 4.0 5.0 0.00 0.01 0.00 54 921.1
20260904051546 53 360 3.0 4.0 0.00 0.01 0.00 53 921.1
20260904051017 53 360 2.0 5.0 0.00 0.01 0.00 53 921.1
20260904050519 53 360 4.0 5.0 0.00 0.01 0.00 53 921.3
20260904050043 53 360 3.0 4.0 0.00 0.01 0.00 53 921.4
20260904045517 53 360 2.0 4.0 0.00 0.03 0.00 53 921.4
20260904045016 53 360 2.0 3.0 0.00 0.03 0.00 53 921.5
20260904044549 53 360 1.0 3.0 0.00 0.03 0.00 53 921.5
20260904044017 53 360 1.0 4.0 0.00 0.03 0.00 52 921.5
20260904043516 53 360 3.0 4.0 0.00 0.03 0.00 52 921.2
20260904043056 53 360 2.0 4.0 0.00 0.03 0.00 51 921.4
20260904042519 54 360 2.0 4.0 0.00 0.03 0.00 51 921.4
20260904042018 54 360 3.0 4.0 0.00 0.03 0.00 51 921.4
20260904041554 54 360 3.0 5.0 0.00 0.03 0.00 50 921.3
20260904041018 54 360 4.0 5.0 0.00 0.03 0.00 50 921.3
20260904040518 54 360 2.0 5.0 0.00 0.03 0.00 50 921.3
20260904040104 55 360 2.0 6.0 0.00 0.03 0.00 50 921.4
20260904035518 54 360 4.0 6.0 0.00 0.04 0.00 50 921.3
20260904035017 54 360 3.0 5.0 0.00 0.04 0.00 50 921.3
20260904034550 54 360 2.0 6.0 0.00 0.04 0.00 50 921.1
20260904034020 54 360 5.0 8.0 0.00 0.04 0.00 50 921.1
20260904033518 55 360 5.0 8.0 0.00 0.04 0.00 49 920.9
20260904033046 55 360 5.0 8.0 0.00 0.04 0.00 48 921.0
20260904032517 55 360 5.0 8.0 0.00 0.04 0.00 48 920.9
20260904032016 56 360 5.0 6.0 0.00 0.04 0.00 46 920.9
20260904031556 57 360 4.0 5.0 0.00 0.04 0.00 45 920.8
20260904031019 58 360 3.0 5.0 0.00 0.04 0.00 44 920.8
20260904030516 58 360 4.0 5.0 0.00 0.04 0.00 44 920.8
20260904030053 58 360 3.0 4.0 0.00 0.04 0.00 43 920.9
20260904025518 59 360 3.0 4.0 0.00 0.04 0.00 42 921.0
20260904025016 59 360 3.0 4.0 0.00 0.04 0.00 42 921.1
20260904024549 59 360 3.0 4.0 0.00 0.04 0.00 41 921.1
20260904024018 59 360 2.0 3.0 0.00 0.04 0.00 41 920.9
20260904023518 59 360 2.0 3.0 0.00 0.04 0.00 40 921.1
20260904023046 60 360 1.0 3.0 0.00 0.04 0.00 40 921.1
20260904022518 60 360 1.0 3.0 0.00 0.04 0.00 40 920.8
20260904022019 60 360 1.0 4.0 0.00 0.04 0.00 40 920.9
20260904021550 60 360 2.0 6.0 0.00 0.04 0.00 40 921.1
20260904021016 60 360 3.0 8.0 0.00 0.04 0.00 39 920.8
20260904020518 61 360 4.0 8.0 0.00 0.04 0.00 38 920.8
20260904020050 62 360 4.0 9.0 0.00 0.04 0.00 37 920.6
20260904015520 62 360 5.0 9.0 0.00 0.04 0.00 37 920.8
20260904015016 63 360 6.0 9.0 0.00 0.04 0.00 36 920.9
20260904014545 63 360 6.0 13.0 0.00 0.04 0.00 35 920.9
20260904014017 64 360 8.0 14.0 0.00 0.04 0.00 34 921.0
20260904013517 64 360 9.0 16.0 0.00 0.04 0.00 33 920.9
20260904013050 65 360 9.0 17.0 0.00 0.04 0.00 33 920.8
20260904012517 65 360 13.0 18.0 0.00 0.04 0.00 32 920.8
20260904012022 66 360 12.0 17.0 0.00 0.04 0.00 32 920.8
20260904011550 65 360 11.0 20.0 0.00 0.04 0.00 32 920.6
20260904011019 65 360 13.0 20.0 0.00 0.04 0.00 32 920.6
20260904010517 65 360 13.0 19.0 0.00 0.04 0.00 32 920.4
20260904010046 66 360 11.0 18.0 0.00 0.04 0.00 31 920.3
20260904005518 66 360 13.0 18.0 0.00 0.04 0.00 31 920.4
20260904005016 66 360 12.0 17.0 0.00 0.04 0.00 30 920.5
20260904004551 67 360 13.0 17.0 0.00 0.04 0.00 29 920.5
20260904004018 67 360 11.0 18.0 0.00 0.04 0.00 29 920.6
20260904003517 68 360 12.0 19.0 0.00 0.04 0.00 28 920.9
20260904003049 69 360 13.0 20.0 0.00 0.04 0.00 27 920.7
20260904002517 69 360 13.0 18.0 0.00 0.04 0.00 27 920.8
20260904002021 69 360 12.0 21.0 0.00 0.04 0.00 27 920.8
20260904001550 70 360 14.0 23.0 0.00 0.04 0.00 25 920.9
20260904001018 71 360 17.0 23.0 0.00 0.04 0.00 24 920.8
20260904000522 71 360 13.0 22.0 0.00 0.04 0.00 24 920.7
20260904000107 71 360 15.0 22.0 0.00 0.04 0.00 25 920.7
20260903235523 71 360 13.0 22.0 0.00 0.04 0.00 25 920.9
20260903235022 70 360 13.0 22.0 0.00 0.04 0.00 25 920.6
20260903234552 70 360 10.0 22.0 0.00 0.04 0.00 25 920.5
20260903234016 70 360 13.0 22.0 0.00 0.04 0.00 24 920.5
20260903233516 71 360 13.0 19.0 0.00 0.04 0.00 23 920.3
20260903233050 71 360 12.0 22.0 0.00 0.04 0.00 23 920.6
20260903232519 71 360 16.0 22.0 0.00 0.04 0.00 23 920.5
20260903232019 71 360 14.0 21.0 0.00 0.04 0.00 23 920.4
20260903231545 72 360 13.0 21.0 0.00 0.04 0.00 23 920.3
20260903231018 72 360 13.0 20.0 0.00 0.04 0.00 23 920.5
20260903230517 71 360 9.0 19.0 0.00 0.04 0.00 24 920.7
20260903230055 71 360 11.0 18.0 0.00 0.04 0.00 23 920.6
20260903225519 71 360 12.0 21.0 0.00 0.06 0.00 25 920.6
20260903225015 71 360 13.0 21.0 0.00 0.06 0.00 24 920.4
20260903224550 71 360 13.0 24.0 0.00 0.06 0.00 25 920.6
20260903224017 70 360 15.0 25.0 0.00 0.06 0.00 25 920.3
20260903223520 70 360 17.0 25.0 0.00 0.06 0.00 25 920.5
20260903223046 71 360 16.0 24.0 0.00 0.06 0.00 24 920.4
20260903222519 71 360 15.0 24.0 0.00 0.06 0.00 24 920.3
20260903222018 70 360 14.0 24.0 0.00 0.06 0.00 25 920.5
20260903221550 70 360 14.0 23.0 0.00 0.06 0.00 25 920.4
20260903221016 70 360 14.0 25.0 0.00 0.06 0.00 26 920.5
20260903220517 70 360 17.0 25.0 0.00 0.06 0.00 26 920.5
20260903220049 70 360 16.0 27.0 0.00 0.06 0.00 25 920.5
20260903215523 70 360 19.0 27.0 0.00 0.06 0.00 25 920.4
20260903215021 71 360 18.0 27.0 0.00 0.06 0.00 24 920.4
20260903214605 71 360 17.0 27.0 0.00 0.06 0.00 24 920.5
20260903214017 70 360 17.0 26.0 0.00 0.06 0.00 24 920.7
20260903213517 70 360 18.0 26.0 0.00 0.06 0.00 24 920.6
20260903213057 70 360 19.0 26.0 0.00 0.06 0.00 24 920.7
20260903212528 71 360 16.0 26.0 0.00 0.06 0.00 25 920.7
20260903212016 70 360 17.0 26.0 0.00 0.06 0.00 26 920.5
20260903211600 71 360 18.0 24.0 0.00 0.06 0.00 25 920.3
20260903211019 71 360 16.0 26.0 0.00 0.06 0.00 25 920.2
20260903210520 71 360 18.0 26.0 0.00 0.06 0.00 26 920.1
20260903210052 71 360 16.0 25.0 0.00 0.06 0.00 26 920.2
20260903205520 71 360 16.0 22.0 0.00 0.06 0.00 27 920.1
20260903205017 71 360 15.0 26.0 0.00 0.06 0.00 26 920.1
20260903204602 71 360 16.0 26.0 0.00 0.06 0.00 26 920.1
20260903204018 70 360 14.0 25.0 0.00 0.06 0.00 27 920.2
20260903203522 71 360 17.0 25.0 0.00 0.06 0.00 27 920.1
20260903203056 71 360 19.0 25.0 0.00 0.06 0.00 27 920.1
20260903202521 71 360 13.0 26.0 0.00 0.06 0.00 28 920.1
20260903202021 71 360 18.0 26.0 0.00 0.06 0.00 28 920.2
20260903201600 71 360 16.0 22.0 0.00 0.06 0.00 27 920.3
20260903201022 72 360 12.0 22.0 0.00 0.06 0.00 27 920.0
20260903200530 71 360 14.0 23.0 0.00 0.06 0.00 26 920.1
20260903195521 71 360 14.0 24.0 0.00 0.06 0.00 27 920.1
20260903195024 71 360 17.0 24.0 0.00 0.06 0.00 27 920.1
20260903194554 71 360 13.0 20.0 0.00 0.06 0.00 27 919.9
20260903194020 71 360 14.0 20.0 0.00 0.06 0.00 27 920.1
20260903193517 71 360 12.0 24.0 0.00 0.06 0.00 28 920.0
20260903193057 71 360 17.0 24.0 0.00 0.06 0.00 28 919.9
20260903192526 71 360 13.0 23.0 0.00 0.06 0.00 29 920.1
20260903192021 70 360 13.0 24.0 0.00 0.06 0.00 29 920.0
20260903191559 71 360 16.0 25.0 0.00 0.06 0.00 28 920.0
20260903191021 71 360 12.0 25.0 0.00 0.06 0.00 28 919.9
20260903190521 71 360 12.0 22.0 0.00 0.06 0.00 28 920.0
20260903185519 71 360 12.0 21.0 0.00 0.06 0.00 29 919.9
20260903185019 70 360 12.0 21.0 0.00 0.06 0.00 30 919.7
20260903184559 70 360 14.0 22.0 0.00 0.06 0.00 30 919.7
20260903184024 70 360 16.0 22.0 0.00 0.06 0.00 30 919.8
20260903183523 70 360 12.0 23.0 0.00 0.06 0.00 29 919.8
20260903183052 70 360 13.0 23.0 0.00 0.06 0.00 30 919.7
20260903182521 69 360 11.0 22.0 0.00 0.06 0.00 30 919.8
20260903182022 69 360 13.0 22.0 0.00 0.06 0.00 29 919.8
20260903181603 70 360 13.0 20.0 0.00 0.06 0.00 29 919.7
20260903181017 70 360 9.0 24.0 0.00 0.06 0.00 30 919.7
20260903180523 69 360 14.0 25.0 0.00 0.06 0.00 29 919.7
20260903180056 69 360 13.0 22.0 0.00 0.06 0.00 29 919.8
20260903175517 69 360 15.0 24.0 0.00 0.06 0.00 30 919.6
20260903175020 69 360 14.0 24.0 0.00 0.06 0.00 30 920.0
20260903174602 69 360 11.0 24.0 0.00 0.06 0.00 30 919.8
20260903174020 69 360 16.0 24.0 0.00 0.06 0.00 29 919.7
20260903173519 69 360 14.0 25.0 0.00 0.06 0.00 31 919.5
20260903173058 68 360 17.0 25.0 0.00 0.06 0.00 32 919.6
20260903172521 67 360 15.0 23.0 0.00 0.06 0.00 32 919.6
20260903172020 68 360 13.0 21.0 0.00 0.06 0.00 31 919.5
20260903171557 68 360 14.0 25.0 0.00 0.06 0.00 31 919.5
20260903171018 68 360 14.0 25.0 0.00 0.06 0.00 31 919.2
20260903170521 68 360 12.0 26.0 0.00 0.06 0.00 31 919.5
20260903170107 67 360 16.0 26.0 0.00 0.06 0.00 32 919.6
20260903165523 67 360 16.0 26.0 0.00 0.06 0.00 32 919.5
20260903165019 67 360 14.0 24.0 0.00 0.06 0.00 33 919.5
20260903164603 67 360 11.0 21.0 0.00 0.06 0.00 33 919.3
20260903164021 67 360 10.0 17.0 0.00 0.06 0.00 33 919.6
20260903163523 68 360 11.0 18.0 0.00 0.06 0.00 34 919.4
20260903163059 67 360 10.0 18.0 0.00 0.06 0.00 36 919.3
20260903162519 66 360 10.0 16.0 0.00 0.06 0.00 36 919.4